Miscellaneous Local Product
Issued by NWS North Platte, NE

Home | Current Version | Previous Version | Text Only | Print | Product List | Glossary On
Versions: 1 2 3 4 5 6 7 8 9 10 11 12 13 14 15 16 17 18 19 20 21 22 23 24 25 26 27 28 29 30 31 32 33 34 35 36 37 38 39 40 41 42 43 44 45 46 47 48 49 50
000
AXUS43 KLBF 210910
MISLBF


WESTERN AND NORTH CENTRAL NEBRASKA HOURLY WEATHER ROUNDUP
NATIONAL WEATHER SERVICE NORTH PLATTE NE
400 AM CDT THU SEP 21 2017

NOTE: "FAIR" INDICATES FEW OR NO CLOUDS BELOW 12,000 FEET WITH NO
SIGNIFICANT WEATHER AND/OR OBSTRUCTIONS TO VISIBILITY.

NOTE: STATIONS NOT REPORTING VARIABLES SUCH AS SKY/WEATHER OR
PRESSURE ARE PROVIDED BY RAWS AND APRS NETWORKS AND ARE NOT UNDER
NATIONAL WEATHER SERVICE QUALITY CONTROL.

...OBSERVATIONS IN AND NEAR THE EASTERN PANHANDLE OF NEBRASKA...

CITY           SKY/WX    TMP DP  RH WIND       PRES   REMARKS
PINE RIDGE     CLEAR     64  36  35 S24G40    29.72F
GORDON         FAIR      59  37  44 S10G16    29.78F
CHADRON        CLEAR     63  32  31 S32G43    29.68F
ALLIANCE       CLEAR     54  36  50 S22G28    29.78F
SIDNEY         CLEAR     55  35  47 S15       29.81F
CRESCENT LAKE    N/A     55  40  58 SE9         N/A
$$

...OBSERVATIONS IN NORTHERN NEBRASKA AND FAR SOUTHERN SOUTH DAKOTA...

CITY           SKY/WX    TMP DP  RH WIND       PRES   REMARKS
WINNER         FAIR      59  44  57 SE13      29.81S
VALENTINE      CLEAR     60  41  49 S14       29.81F
THEDFORD       CLEAR     57  44  60 SE13      29.84F
AINSWORTH      CLEAR     56  45  66 S15       29.84F
O`NEILL        CLEAR     51  47  86 SE5       29.88F
ORD            CLEAR     48  43  82 CALM      29.87F
BROKEN BOW     CLEAR     49  42  77 E3        29.86F
VALENTINE NWR    N/A     54  42  62 S9          N/A
HALSEY           N/A     57  41  56 SE9         N/A
BUTTE            N/A     55  47  75 SE12        N/A
CHAMBERS         N/A     50  44  80 CALM        N/A
EWING            N/A     50  47  88 CALM        N/A
$$

...OBSERVATIONS IN SOUTHWEST NEBRASKA AND FAR NORTHEAST COLORADO...

CITY           SKY/WX    TMP DP  RH WIND       PRES   REMARKS
WRAY           FAIR      54  37  54 E7        29.82F
IMPERIAL       CLEAR     57  40  52 SE14      29.82F
OGALLALA       CLEAR     48  39  70 CALM      29.84S
NORTH PLATTE   CLEAR     47  43  86 E8        29.84F
MCCOOK         CLEAR     56  48  74 E9        29.82F
LEXINGTON      CLEAR     54  46  76 E6        29.85F
STAPLETON        N/A     55  45  70 CALM        N/A
GOTHENBURG       N/A     50  41  71 E3          N/A
CALLAWAY         N/A     50  46  84 SE7         N/A
$$

...OBSERVATIONS IN CENTRAL LINCOLN COUNTY AREA...

CITY           SKY/WX    TMP DP  RH WIND       PRES   REMARKS
N.P. AIRPORT   CLEAR     47  43  86 E8        29.84F
N.P. DOWNTOWN    N/A     51  44  78 CALM        N/A
N.P. SOUTHEAST   N/A     49  44  82 CALM        N/A
N.P. HILLCREST   N/A     54  44  70 SE12        N/A
$$

...SOME OBSERVATIONS FROM AROUND THE REGION...

CITY           SKY/WX    TMP DP  RH WIND       PRES   REMARKS
DENVER         CLOUDY    62  29  28 SW14      29.80F
LIMON          CLOUDY    35  31  85 CALM      29.88F
ASPEN          CLOUDY    51  27  39 S15       29.98F
LARAMIE        CLOUDY    54  25  32 S14       29.85F
CASPER         CLEAR     40  34  79 MISG      29.66F
CHEYENNE       CLOUDY    45  32  60 SW7       29.84F
SCOTTSBLUFF    CLEAR     54  36  50 E12       29.77F
GRAND ISLAND   CLEAR     53  51  93 N7        29.86F
OMAHA          PTCLDY    69  55  60 E6        29.86F
SIOUX FALLS    CLEAR     51  46  83 E3        29.92S
PIERRE         CLEAR     58  43  57 SE16      29.75F
BISMARCK       MOCLDY    55  40  56 SE10      29.71F
KANSAS CITY    PTCLDY    78  73  84 S13       29.87F
HILL CITY      CLEAR     53  45  74 CALM      29.83F
WICHITA        PTCLDY    75  73  93 SE9       29.83F
DODGE CITY     CLEAR     58  49  72 S8        29.83F
OKLAHOMA CITY  CLOUDY    79  70  74 S14G22    29.86S
DALLAS         CLOUDY    82  74  76 S15G23    29.88R
AMARILLO       CLEAR     60  45  57 S10       29.90F
$$




USA.gov is the U.S. government's official web portal to all federal, state and local government web resources and services.